Location: Bu�n Treun
(12.1333°N, 108.3167°E)
Time: 23:55:55
(UTC+00:00)

Cosmos 1025 Rocket - Pass Details

Date: 13 July 2020
Orbit: 593 x 619 km, 82.5° (Epoch: 14 August)

Event Time Altitude Azimuth Distance (km) Brightness Sun altitude
Rises 22:01:31 0° 339° (NNW) 2,843 6.5 -7.1°
Reaches altitude 10° 22:03:57 10° 328° (NNW) 1,936 5.5 -6.5°
Maximum altitude 22:07:38 28° 268° (W) 1,116 3.9 -5.7°
Drops below altitude 10° 22:11:18 10° 208° (SSW) 1,924 5.1 -4.9°
Sets 22:13:43 0° 197° (SSW) 2,822 6.1 -4.4°
